| time (UTC) | temp F | wind direction | speed MPH | gust MPH | rain 1hr in | rain 24hr in | rain mn in | humidity % | barometer mb |
| 20260504202003 | 71 | 246 | 3.0 | 13.0 | 0.00 | 0.00 | 0.00 | 48 | 1013.7 |
| 20260504201004 | 70 | 198 | 4.0 | 12.0 | 0.00 | 0.00 | 0.00 | 48 | 952.5 |
| 20260504200004 | 69 | 241 | 4.0 | 10.0 | 0.00 | 0.00 | 0.00 | 49 | 952.5 |
| 20260504195004 | 70 | 224 | 3.0 | 10.0 | 0.00 | 0.00 | 0.00 | 48 | 870.0 |
| 20260504194003 | 70 | 233 | 2.0 | 10.0 | 0.00 | 0.00 | 0.00 | 45 | 830.2 |
| 20260504193004 | 71 | 221 | 1.0 | 8.0 | 0.00 | 0.00 | 0.00 | 44 | 830.2 |
| 20260504191003 | 70 | 280 | 0.0 | 3.0 | 0.00 | 0.00 | 0.00 | 43 | 830.0 |
| 20260504185004 | 69 | 110 | 0.0 | 1.0 | 0.00 | 0.00 | 0.00 | 44 | 891.7 |
| 20260504183004 | 69 | 288 | 0.0 | 5.0 | 0.00 | 0.00 | 0.00 | 45 | 891.7 |
| 20260504182004 | 68 | 227 | 0.0 | 3.0 | 0.00 | 0.00 | 0.00 | 45 | 1014.4 |
| 20260504181004 | 69 | 187 | 1.0 | 6.0 | 0.00 | 0.00 | 0.00 | 46 | 830.4 |
| 20260504180004 | 68 | 268 | 3.0 | 12.0 | 0.00 | 0.00 | 0.00 | 49 | 1014.3 |
| 20260504174003 | 67 | 278 | 0.0 | 10.0 | 0.00 | 0.00 | 0.00 | 54 | 1014.2 |
| 20260504173004 | 66 | 244 | 0.0 | 0.0 | 0.00 | 0.00 | 0.00 | 56 | 1014.3 |
| 20260504172004 | 66 | 265 | 0.0 | 0.0 | 0.00 | 0.00 | 0.00 | 56 | 1014.3 |
| 20260504171004 | 66 | 259 | 0.0 | 0.0 | 0.00 | 0.00 | 0.00 | 57 | 1014.3 |
| 20260504151004 | 51 | 101 | 0.0 | 0.0 | 0.00 | 0.00 | 0.00 | 3 | 1015.0 |
| 20260504141003 | 44 | 63 | 0.0 | 0.0 | 0.00 | 0.00 | 0.00 | 3 | 1014.9 |
| 20260504050004 | 58 | 327 | 0.0 | 2.0 | 0.00 | 0.00 | 0.00 | 65 | 1012.4 |
| 20260504045004 | 58 | 316 | 0.0 | 1.0 | 0.00 | 0.00 | 0.00 | 65 | 1012.4 |
| 20260504044004 | 58 | 290 | 0.0 | 1.0 | 0.00 | 0.00 | 0.00 | 65 | 1012.4 |
| 20260504042004 | 59 | 323 | 0.0 | 0.0 | 0.00 | 0.00 | 0.00 | 66 | 1012.4 |
| 20260504041004 | 59 | 15 | 0.0 | 0.0 | 0.00 | 0.00 | 0.00 | 65 | 1012.4 |
| 20260504040004 | 59 | 323 | 0.0 | 0.0 | 0.00 | 0.00 | 0.00 | 65 | 1012.4 |
| 20260504034004 | 60 | 307 | 0.0 | 6.0 | 0.00 | 0.00 | 0.00 | 64 | 1012.4 |
| 20260504032004 | 60 | 326 | 0.0 | 6.0 | 0.00 | 0.00 | 0.00 | 63 | 1012.4 |
| 20260504031004 | 60 | 329 | 0.0 | 9.0 | 0.00 | 0.00 | 0.00 | 63 | 1012.4 |
| 20260504030004 | 61 | 308 | 1.0 | 10.0 | 0.00 | 0.00 | 0.00 | 62 | 1012.4 |
| 20260504025005 | 61 | 334 | 2.0 | 9.0 | 0.00 | 0.00 | 0.00 | 61 | 1012.4 |
| 20260504024004 | 61 | 346 | 0.0 | 9.0 | 0.00 | 0.00 | 0.00 | 61 | 1012.4 |
| 20260504023004 | 61 | 343 | 0.0 | 6.0 | 0.00 | 0.00 | 0.00 | 60 | 1012.4 |
| 20260504022004 | 62 | 325 | 1.0 | 6.0 | 0.00 | 0.00 | 0.00 | 60 | 1012.4 |
| 20260504021004 | 62 | 347 | 0.0 | 6.0 | 0.00 | 0.00 | 0.00 | 59 | 1012.4 |
| 20260504020004 | 62 | 326 | 1.0 | 10.0 | 0.00 | 0.00 | 0.00 | 58 | 1012.4 |
| 20260504015004 | 62 | 2 | 0.0 | 12.0 | 0.00 | 0.00 | 0.00 | 59 | 1012.4 |
| 20260504014004 | 63 | 346 | 3.0 | 12.0 | 0.00 | 0.00 | 0.00 | 58 | 1012.4 |
| 20260504013004 | 63 | 263 | 2.0 | 10.0 | 0.00 | 0.00 | 0.00 | 59 | 1012.4 |
| 20260504011004 | 63 | 293 | 4.0 | 14.0 | 0.00 | 0.00 | 0.00 | 58 | 1012.4 |
| 20260504010004 | 64 | 314 | 3.0 | 14.0 | 0.00 | 0.00 | 0.00 | 57 | 1012.4 |
| 20260504005004 | 64 | 296 | 4.0 | 13.0 | 0.00 | 0.00 | 0.00 | 56 | 1012.4 |
| 20260504004003 | 64 | 286 | 6.0 | 14.0 | 0.00 | 0.00 | 0.00 | 55 | 1012.4 |
| 20260504002005 | 65 | 306 | 3.0 | 12.0 | 0.00 | 0.00 | 0.00 | 56 | 1012.4 |
| 20260504001003 | 66 | 277 | 2.0 | 12.0 | 0.00 | 0.00 | 0.00 | 58 | 1012.4 |
| 20260504000003 | 66 | 247 | 1.0 | 6.0 | 0.00 | 0.00 | 0.00 | 58 | 1012.4 |
| 20260503235004 | 66 | 249 | 2.0 | 12.0 | 0.00 | 0.00 | 0.00 | 57 | 1012.4 |
| 20260503234004 | 67 | 253 | 1.0 | 10.0 | 0.00 | 0.00 | 0.00 | 56 | 1012.4 |
| 20260503232004 | 68 | 271 | 1.0 | 16.0 | 0.00 | 0.00 | 0.00 | 56 | 1012.4 |
| 20260503231004 | 68 | 220 | 5.0 | 10.0 | 0.00 | 0.00 | 0.00 | 56 | 1012.4 |
| 20260503230004 | 69 | 231 | 3.0 | 12.0 | 0.00 | 0.00 | 0.00 | 56 | 1012.4 |
| 20260503225004 | 69 | 178 | 1.0 | 10.0 | 0.00 | 0.00 | 0.00 | 56 | 1012.4 |
| 20260503224004 | 69 | 239 | 6.0 | 12.0 | 0.00 | 0.00 | 0.00 | 56 | 1012.4 |
| 20260503223004 | 69 | 187 | 3.0 | 10.0 | 0.00 | 0.00 | 0.00 | 58 | 1012.4 |
| 20260503222004 | 68 | 266 | 0.0 | 6.0 | 0.00 | 0.00 | 0.00 | 58 | 1012.4 |
| 20260503221004 | 68 | 208 | 0.0 | 9.0 | 0.00 | 0.00 | 0.00 | 57 | 1012.4 |
| 20260503220004 | 68 | 215 | 0.0 | 7.0 | 0.00 | 0.00 | 0.00 | 58 | 1012.4 |
| 20260503211004 | 68 | 224 | 7.0 | 12.0 | 0.00 | 0.00 | 0.00 | 57 | 1012.4 |
| 20260503210005 | 68 | 209 | 1.0 | 10.0 | 0.00 | 0.00 | 0.00 | 57 | 859.1 |
| 20260503205003 | 68 | 217 | 9.0 | 14.0 | 0.00 | 0.00 | 0.00 | 58 | 859.1 |
| 20260503203004 | 67 | 210 | 7.0 | 13.0 | 0.00 | 0.00 | 0.00 | 59 | 950.0 |